Home > Time Zones > World Clock > Weather > Italy > Parma > Past weeks

Flag for Italy Weather past 2 weeks in Parma, Italy

Now
55 °F

Clear.


Feels Like: 51 °F
Forecast: 43 / 68 °F
Wind: 17 mph from Southwest

Location: Parma

Current Time: Apr 1, 2015 at 7:23:24 AM

Latest Report: Apr 1, 2015 at 7:00 AM


Visibility: 10 mi

Pressure: 29.83 "Hg

Humidity: 31%

Dew point: 25 °F

Location of ParmaLocation

Historic Weather in Parma — Graph

°F

Parma temperature yesterday

Maximum temperature yesterday: 73 °F (at 4:50 PM)
Minimum temperature yesterday: 45 °F (at 7:00 AM)
Average temperature yesterday: 64 °F

Past Weeks' High & Low Weather Summary

 TemperatureHumidityPressure
High73 °F (Mar 30, 3:50 PM)100% (Mar 17, 9:50 AM)30.36 "Hg (Mar 17, 9:50 AM)
Low37 °F (Mar 18, 7:00 AM)26% (Mar 28, 1:50 PM)29.47 "Hg (Mar 25, 1:50 PM)
Average54 °F72%29.95 "Hg
* Reported Mar 16 9:50 PM — Mar 31 10:50 PM, Parma, Weather by CustomWeather, © 2015

Note: Actual official high and low records may vary slightly from our data, if they occured in-between our weather recording intervals... More about our weather records

Advertising

Parma weather history for previous 24 hours

 ConditionsComfort  
Time TempWeatherWind HumidityBarometerVisibility
10:50 PM
Tue, Mar 31
66 °FClear.17 mph35%29.68 "Hg10 mi
9:50 PM63 °FClear.12 mph56%29.65 "Hg10 mi
8:50 PM64 °FPassing clouds.15 mph52%29.62 "HgN/A
7:50 PM68 °FPassing clouds.12 mph46%29.59 "HgN/A
6:50 PM70 °FPassing clouds.17 mph43%29.56 "HgN/A
5:50 PM73 °FPassing clouds.18 mph38%29.56 "HgN/A
4:50 PM73 °FSunny.18 mph41%29.59 "Hg10 mi
3:50 PM72 °FPassing clouds.6 mph50%29.65 "HgN/A
2:50 PM70 °FSunny.6 mph50%29.68 "Hg10 mi
1:50 PM70 °FPassing clouds.17 mph50%29.71 "HgN/A
12:50 PM64 °FSunny.3 mph56%29.74 "Hg10 mi
11:50 AM63 °FSunny.3 mph52%29.77 "Hg10 mi
10:50 AM63 °FSunny.1 mph52%29.80 "Hg10 mi
9:50 AM59 °FSunny.1 mph55%29.80 "Hg10 mi
8:50 AM54 °FSunny.5 mph67%29.83 "Hg10 mi
7:50 AM45 °FClear.2 mph87%29.83 "Hg10 mi
7:00 AM45 °FClear.2 mph81%29.83 "Hg10 mi
Weather by CustomWeather, © 2015

See weather overviewHow to use our weather pages